(°C)
10°
11°
(°C)
ЗЮЗ
ЗЮЗ
ЗЮЗ
ЗЮЗ
З
З
ЗЮЗ
(км/ч)
4-11
4-11
4-11
4-12
5-14
5-14
6-16
(мм)
0
0
0
0
0
0
0
(%)
0
0
0
0
0
0
0

Высота солнцестояния

/ -8.7°
sun-icon
UV 3
03:26
19:51
Убывающая луна (199°)
22:13
03:52

METAR для 55.61°С 49.28°В (UWKD)

Время Условия Температура/
Точка росы
Ветер Видимость Погода Облачность Давление Изменить Необработанный
VFR 7°C / 5°C 250º 6kt >10km - Clouds and Visibility OK 999 No Significant change UWKD 162230Z 25003MPS CAVOK 07/05 Q0999 R29/70D NOSIG RMK QFE738/0984
VFR 8°C / 5°C 260º 6kt >10km - Clouds and Visibility OK 999 No Significant change UWKD 162200Z 26003MPS CAVOK 08/05 Q0999 R29/CLRD70 NOSIG RMK QFE738/0984
VFR 8°C / 5°C 250º 6kt >10km - Clouds and Visibility OK 999 No Significant change UWKD 162130Z 25003MPS CAVOK 08/05 Q0999 R29/CLRD70 NOSIG RMK QFE738/0984
VFR 8°C / 6°C 270º 6kt >10km - Clouds and Visibility OK 999 No Significant change UWKD 162100Z 27003MPS CAVOK 08/06 Q0999 R29/CLRD70 NOSIG RMK QFE738/0984
VFR 9°C / 6°C 270º 6kt >10km - Clouds and Visibility OK 999 No Significant change UWKD 162030Z 27003MPS CAVOK 09/06 Q0999 R29/70D NOSIG RMK QFE738/0984
VFR 9°C / 6°C 260º 6kt >10km - Clouds and Visibility OK 999 No Significant change UWKD 162000Z 26003MPS CAVOK 09/06 Q0999 R29/70D NOSIG RMK QFE738/0984
VFR 9°C / 6°C 270º 8kt >10km - Clouds and Visibility OK 999 No Significant change UWKD 161930Z 27004MPS CAVOK 09/06 Q0999 R29/CLRD70 NOSIG RMK QFE738/0984
VFR 10°C / 6°C 270º 8kt >10km - Clouds and Visibility OK 999 No Significant change UWKD 161900Z 27004MPS CAVOK 10/06 Q0999 R29/CLRD70 NOSIG RMK QFE738/0984
VFR 10°C / 7°C 260º 8kt >10km - Clouds and Visibility OK 999 No Significant change UWKD 161830Z 26004MPS CAVOK 10/07 Q0999 R29/CLRD70 NOSIG RMK QFE738/0984
VFR 11°C / 7°C 270º 8kt >10km - Clouds and Visibility OK 999 No Significant change UWKD 161800Z 27004MPS CAVOK 11/07 Q0999 R29/CLRD70 NOSIG RMK QFE738/0984
VFR 11°C / 6°C 250º 6kt >10km - Clouds and Visibility OK 999 No Significant change UWKD 161730Z 25003MPS CAVOK 11/06 Q0999 R29/70D NOSIG RMK QFE738/0984
VFR 12°C / 6°C 260º 8kt >10km - Clouds and Visibility OK 999 No Significant change UWKD 161700Z 26004MPS CAVOK 12/06 Q0999 R29/70D NOSIG RMK QFE738/0984
VFR 12°C / 6°C 260º 8kt >10km - Clouds and Visibility OK 999 No Significant change UWKD 161630Z 26004MPS CAVOK 12/06 Q0999 R29/CLRD70 NOSIG RMK QFE738/0984
VFR 13°C / 6°C 260º 8kt >10km - Clouds and Visibility OK 999 No Significant change UWKD 161600Z 26004MPS CAVOK 13/06 Q0999 R29/70D NOSIG RMK QFE738/0984
VFR 14°C / 6°C 270º 12kt >10km - Scattered Clouds 5000ft 998 No Significant change UWKD 161500Z 27006MPS 9999 SCT050CB 14/06 Q0998 R29/70D NOSIG RMK QFE738/0984
VFR 15°C / 4°C 290º 16kt Gust 25kt >10km - Scattered Clouds 5000ft 998 No Significant change UWKD 161400Z 29008G13MPS 9999 SCT050CB 15/04 Q0998 R29/CLRD70 NOSIG RMK QFE738/0984
VFR 17°C / 4°C 260º 10kt >10km - Scattered Clouds 5000ft 998 No Significant change UWKD 161330Z 26005MPS 9999 SCT050CB 17/04 Q0998 R29/CLRD70 NOSIG RMK QFE737/0983
VFR 17°C / 2°C 200º variable 170º to 250º 8kt >10km - Scattered Clouds 5000ft 998 No Significant change. Runway 29: Wet or puddles, with <1mm, friction coefficient 0.50. UWKD 161300Z 20004MPS 170V250 9999 SCT050CB 17/02 Q0998 R29/2/0050 NOSIG RMK QFE738/0984
VFR 17°C / 3°C 250º 10kt. Wind Shear present on Runway 11. >10km - Scattered Clouds 5000ft 998 No Significant change. Runway 11: Wet or puddles, with <1mm, friction coefficient 0.50. UWKD 161230Z 25005MPS 9999 SCT050CB 17/03 Q0998 WS R11 R11/2/0050 NOSIG RMK QFE738/0985
VFR 16°C / 6°C 140º variable 110º to 170º 8kt. Wind Shear present on Runway 11. >10km - Scattered Clouds 5000ft 998 No Significant change. Runway 11: Wet or puddles, with <1mm, friction coefficient 0.50. UWKD 161200Z 14004MPS 110V170 9999 SCT050CB 16/06 Q0998 WS R11 R11/2/0050 NOSIG RMK QFE738/0985
VFR 16°C / 7°C variable 2kt. Wind Shear present on Runway 11. >10km - Scattered Clouds 5000ft 998 No Significant change. Runway 11: Wet or puddles, with <1mm, friction coefficient 0.50. UWKD 161130Z VRB01MPS 9999 SCT050CB 16/07 Q0998 WS R11 R11/2/0050 NOSIG RMK QFE738/0985
MVFR 13°C / 7°C 340º variable 320º to 020º 10kt. Wind Shear present on Runway 29. >10km Light Thunderstorm Rain 3.00mm precipitation Vertical Visibility of 0ft. 999 No Significant change. Runway 29: Wet or puddles, with <1mm, friction coefficient 0.50. UWKD 161100Z 34005MPS 320V020 9999 -TSRA BKN023CB 13/07 Q0999 WS R29 R29/2/0050 NOSIG RMK QFE738/0984
VFR 16°C / 4°C 250º variable 210º to 270º 6kt. Wind Shear present on Runway 29. >10km Light Showers Rain 3.00mm precipitation Vertical Visibility of 0ft. 998 No Significant change UWKD 161030Z 25003MPS 210V270 9999 -SHRA BKN050CB 16/04 Q0998 WS R29 R29/CLRD70 NOSIG RMK QFE737/0983
VFR 16°C / 5°C 270º 10kt >10km Light Showers Rain 3.00mm precipitation Vertical Visibility of 0ft. 998 No Significant change UWKD 161000Z 27005MPS 9999 -SHRA BKN050CB 16/05 Q0998 R29/CLRD70 NOSIG RMK QFE737/0983

VFR

7°C / 5°C

[Больше]
Ветер 250º 6kt
Видимость >10km
Погода -
Облачность Clouds and Visibility OK
Давление 999
Изменить No Significant change
Необработанный UWKD 162230Z 25003MPS CAVOK 07/05 Q0999 R29/70D NOSIG RMK QFE738/0984

VFR

8°C / 5°C

[Больше]
Ветер 260º 6kt
Видимость >10km
Погода -
Облачность Clouds and Visibility OK
Давление 999
Изменить No Significant change
Необработанный UWKD 162200Z 26003MPS CAVOK 08/05 Q0999 R29/CLRD70 NOSIG RMK QFE738/0984

VFR

8°C / 5°C

[Больше]
Ветер 250º 6kt
Видимость >10km
Погода -
Облачность Clouds and Visibility OK
Давление 999
Изменить No Significant change
Необработанный UWKD 162130Z 25003MPS CAVOK 08/05 Q0999 R29/CLRD70 NOSIG RMK QFE738/0984

VFR

8°C / 6°C

[Больше]
Ветер 270º 6kt
Видимость >10km
Погода -
Облачность Clouds and Visibility OK
Давление 999
Изменить No Significant change
Необработанный UWKD 162100Z 27003MPS CAVOK 08/06 Q0999 R29/CLRD70 NOSIG RMK QFE738/0984

VFR

9°C / 6°C

[Больше]
Ветер 270º 6kt
Видимость >10km
Погода -
Облачность Clouds and Visibility OK
Давление 999
Изменить No Significant change
Необработанный UWKD 162030Z 27003MPS CAVOK 09/06 Q0999 R29/70D NOSIG RMK QFE738/0984

VFR

9°C / 6°C

[Больше]
Ветер 260º 6kt
Видимость >10km
Погода -
Облачность Clouds and Visibility OK
Давление 999
Изменить No Significant change
Необработанный UWKD 162000Z 26003MPS CAVOK 09/06 Q0999 R29/70D NOSIG RMK QFE738/0984

VFR

9°C / 6°C

[Больше]
Ветер 270º 8kt
Видимость >10km
Погода -
Облачность Clouds and Visibility OK
Давление 999
Изменить No Significant change
Необработанный UWKD 161930Z 27004MPS CAVOK 09/06 Q0999 R29/CLRD70 NOSIG RMK QFE738/0984

VFR

10°C / 6°C

[Больше]
Ветер 270º 8kt
Видимость >10km
Погода -
Облачность Clouds and Visibility OK
Давление 999
Изменить No Significant change
Необработанный UWKD 161900Z 27004MPS CAVOK 10/06 Q0999 R29/CLRD70 NOSIG RMK QFE738/0984

VFR

10°C / 7°C

[Больше]
Ветер 260º 8kt
Видимость >10km
Погода -
Облачность Clouds and Visibility OK
Давление 999
Изменить No Significant change
Необработанный UWKD 161830Z 26004MPS CAVOK 10/07 Q0999 R29/CLRD70 NOSIG RMK QFE738/0984

VFR

11°C / 7°C

[Больше]
Ветер 270º 8kt
Видимость >10km
Погода -
Облачность Clouds and Visibility OK
Давление 999
Изменить No Significant change
Необработанный UWKD 161800Z 27004MPS CAVOK 11/07 Q0999 R29/CLRD70 NOSIG RMK QFE738/0984

VFR

11°C / 6°C

[Больше]
Ветер 250º 6kt
Видимость >10km
Погода -
Облачность Clouds and Visibility OK
Давление 999
Изменить No Significant change
Необработанный UWKD 161730Z 25003MPS CAVOK 11/06 Q0999 R29/70D NOSIG RMK QFE738/0984

VFR

12°C / 6°C

[Больше]
Ветер 260º 8kt
Видимость >10km
Погода -
Облачность Clouds and Visibility OK
Давление 999
Изменить No Significant change
Необработанный UWKD 161700Z 26004MPS CAVOK 12/06 Q0999 R29/70D NOSIG RMK QFE738/0984

VFR

12°C / 6°C

[Больше]
Ветер 260º 8kt
Видимость >10km
Погода -
Облачность Clouds and Visibility OK
Давление 999
Изменить No Significant change
Необработанный UWKD 161630Z 26004MPS CAVOK 12/06 Q0999 R29/CLRD70 NOSIG RMK QFE738/0984

VFR

13°C / 6°C

[Больше]
Ветер 260º 8kt
Видимость >10km
Погода -
Облачность Clouds and Visibility OK
Давление 999
Изменить No Significant change
Необработанный UWKD 161600Z 26004MPS CAVOK 13/06 Q0999 R29/70D NOSIG RMK QFE738/0984

VFR

14°C / 6°C

[Больше]
Ветер 270º 12kt
Видимость >10km
Погода -
Облачность Scattered Clouds 5000ft
Давление 998
Изменить No Significant change
Необработанный UWKD 161500Z 27006MPS 9999 SCT050CB 14/06 Q0998 R29/70D NOSIG RMK QFE738/0984

VFR

15°C / 4°C

[Больше]
Ветер 290º 16kt Gust 25kt
Видимость >10km
Погода -
Облачность Scattered Clouds 5000ft
Давление 998
Изменить No Significant change
Необработанный UWKD 161400Z 29008G13MPS 9999 SCT050CB 15/04 Q0998 R29/CLRD70 NOSIG RMK QFE738/0984

VFR

17°C / 4°C

[Больше]
Ветер 260º 10kt
Видимость >10km
Погода -
Облачность Scattered Clouds 5000ft
Давление 998
Изменить No Significant change
Необработанный UWKD 161330Z 26005MPS 9999 SCT050CB 17/04 Q0998 R29/CLRD70 NOSIG RMK QFE737/0983

VFR

17°C / 2°C

[Больше]
Ветер 200º variable 170º to 250º 8kt
Видимость >10km
Погода -
Облачность Scattered Clouds 5000ft
Давление 998
Изменить No Significant change. Runway 29: Wet or puddles, with <1mm, friction coefficient 0.50.
Необработанный UWKD 161300Z 20004MPS 170V250 9999 SCT050CB 17/02 Q0998 R29/2/0050 NOSIG RMK QFE738/0984

VFR

17°C / 3°C

[Больше]
Ветер 250º 10kt. Wind Shear present on Runway 11.
Видимость >10km
Погода -
Облачность Scattered Clouds 5000ft
Давление 998
Изменить No Significant change. Runway 11: Wet or puddles, with <1mm, friction coefficient 0.50.
Необработанный UWKD 161230Z 25005MPS 9999 SCT050CB 17/03 Q0998 WS R11 R11/2/0050 NOSIG RMK QFE738/0985

VFR

16°C / 6°C

[Больше]
Ветер 140º variable 110º to 170º 8kt. Wind Shear present on Runway 11.
Видимость >10km
Погода -
Облачность Scattered Clouds 5000ft
Давление 998
Изменить No Significant change. Runway 11: Wet or puddles, with <1mm, friction coefficient 0.50.
Необработанный UWKD 161200Z 14004MPS 110V170 9999 SCT050CB 16/06 Q0998 WS R11 R11/2/0050 NOSIG RMK QFE738/0985

VFR

16°C / 7°C

[Больше]
Ветер variable 2kt. Wind Shear present on Runway 11.
Видимость >10km
Погода -
Облачность Scattered Clouds 5000ft
Давление 998
Изменить No Significant change. Runway 11: Wet or puddles, with <1mm, friction coefficient 0.50.
Необработанный UWKD 161130Z VRB01MPS 9999 SCT050CB 16/07 Q0998 WS R11 R11/2/0050 NOSIG RMK QFE738/0985

MVFR

13°C / 7°C

[Больше]
Ветер 340º variable 320º to 020º 10kt. Wind Shear present on Runway 29.
Видимость >10km
Погода Light Thunderstorm Rain 3.00mm precipitation
Облачность Vertical Visibility of 0ft.
Давление 999
Изменить No Significant change. Runway 29: Wet or puddles, with <1mm, friction coefficient 0.50.
Необработанный UWKD 161100Z 34005MPS 320V020 9999 -TSRA BKN023CB 13/07 Q0999 WS R29 R29/2/0050 NOSIG RMK QFE738/0984

VFR

16°C / 4°C

[Больше]
Ветер 250º variable 210º to 270º 6kt. Wind Shear present on Runway 29.
Видимость >10km
Погода Light Showers Rain 3.00mm precipitation
Облачность Vertical Visibility of 0ft.
Давление 998
Изменить No Significant change
Необработанный UWKD 161030Z 25003MPS 210V270 9999 -SHRA BKN050CB 16/04 Q0998 WS R29 R29/CLRD70 NOSIG RMK QFE737/0983

VFR

16°C / 5°C

[Больше]
Ветер 270º 10kt
Видимость >10km
Погода Light Showers Rain 3.00mm precipitation
Облачность Vertical Visibility of 0ft.
Давление 998
Изменить No Significant change
Необработанный UWKD 161000Z 27005MPS 9999 -SHRA BKN050CB 16/05 Q0998 R29/CLRD70 NOSIG RMK QFE737/0983

TAF для 55.61°С 49.28°В (UWKD)

From till


Maximum Temperature 16ºC on . Minimum Temperature 7ºC on .
From till Wind 270º 10kt. Visibility 10km or more. Broken Clouds 1600ft.
Becoming from till Wind 270º 12kt. Gust 23kt. Visibility 10km or more. Broken Clouds 1600ft.
Temporarly from till Visibility 6000m. Light Showers Rain . Broken Clouds 2000ft.
Temporarly from till Wind variable 29kt. Visibility 3100m. Light Thunderstorm Rain Squalls . Broken Clouds 2000ft.
Becoming from till Wind 250º 6kt. Visibility 10km or more. Broken Clouds 1600ft.

Необработанный: TAF UWKD 162000Z 1621/1721 27005MPS 9999 BKN016 TX16/1712Z TN07/1701Z BECMG 1704/1706 27006G12MPS TEMPO 1706/1710 6000 -SHRA BKN020CB TEMPO 1710/1716 VRB15MPS 3100 -TSRA SQ BKN020CB BECMG 1717/1719 25003MPS

Радарный и сверхкраткосрочный прогноз осадков для 55.61°С 49.28°В

Морось
Незначительные
Умеренные
Сильные
Очень Сильные
Град

Индикатор местности находится на 55.61°С 49.28°В. Анимация показывает радар осадков за последний час, а также прогноз погоды для 1h. Морось или небольшой снег могут быть невидимы для радара. Интенсивность осадков имеет цветовую кодировку - от светло-голубого до оранжевого.

Текущие спутниковые изображения и снимки дождя для 55.61°С 49.28°В

Указатель местности находится на 55.61°С 49.28°В. [Больше]

Спутниковое изображение в реальном времени сочетает в себе видимый свет в дневное время с инфракрасным излучением в ночное время. Ночью изображение получается не темным, так как инфракрасное излучение может обнаружить разницу температур. К сожалению, низкие облака и туман трудно отличить от температуры у поверхности земли и поэтому могут быть почти незаметны ночью. Спутниковые снимки Meteosat для Европы обновляются каждые 5 минут в режиме реального времени.Снимки GOES-16/GOES-17 (Северная и Южная Америка) и Химавари (Азия) обновляются каждые 10 минут.

Копирайт 2022 EUMETSAT / meteoblue. / Копирайт 2022 meteoblue

Обратно к последним данным